Temp
73 76 80 82 82 83 82 83 83 82 82 82 82 83 83 83 83 83 83 83 83 83 83 83 83 83 83 83 83 82 82 82 82 82 82 82 82 82 81 81 81 82 81
75 77 80 82 83 83 83 82 82 82 82 82 83 83 83 83 83 83 83 83 83 83 83 83 83 83 83 83 83 82 82 83 83 83 83 83 82 81 82 81 81 82 81
75 76 78 81 82 83 82 82 83 83 83 83 83 83 83 83 83 83 83 83 83 83 83 83 83 83 83 83 83 81 81 82 83 83 82 79 81 82 82 82 82 82 81
75 74 76 81 82 83 83 83 83 83 83 83 83 83 83 83 83 83 83 83 83 83 83 83 83 83 82 83 83 81 83 83 83 82 78 80 83 83 82 82 82 82 81
74 74 77 82 82 83 83 83 83 83 83 83 83 83 83 83 83 83 83 83 83 83 83 83 83 83 83 83 83 83 83 83 83 80 78 78 80 83 82 82 82 82 81
74 74 81 82 83 83 83 83 83 83 83 83 83 83 83 83 83 83 83 83 83 83 83 83 83 83 83 83 83 84 82 82 83 78 77 79 79 83 82 82 82 82 81
73 75 79 83 83 83 83 83 83 83 83 83 83 83 83 84 84 83 83 83 83 84 84 83 83 83 83 83 83 83 82 81 77 76 77 78 79 82 82 82 82 81 81
75 76 78 83 83 83 83 83 83 83 83 83 83 83 83 84 84 84 84 84 84 84 84 84 83 83 83 83 82 83 83 82 78 77 76 77 79 82 82 82 81 81 81
76 75 76 79 81 83 83 83 83 83 83 83 83 83 83 83 84 84 84 84 84 84 84 84 83 83 83 83 83 82 81 80 75 76 77 76 79 82 82 82 82 81 81
74 75 74 75 78 77 79 83 83 83 83 83 83 83 83 84 84 84 83 82 84 84 84 84 84 83 83 83 83 82 82 80 76 76 76 77 79 83 82 82 82 81 81
74 73 74 74 74 75 76 79 83 83 83 83 83 83 81 78 78 81 81 83 84 83 84 84 84 84 84 83 83 83 82 74 75 75 75 77 79 83 83 82 81 81 81
72 72 74 73 74 75 79 76 76 77 78 77 78 78 78 77 76 79 81 83 85 85 83 84 84 82 81 78 78 81 75 75 74 75 75 77 79 83 83 82 81 81 81
73 74 74 74 74 74 76 74 74 75 75 75 76 76 76 76 75 75 75 76 76 80 78 78 78 78 79 79 78 78 77 76 76 76 76 78 80 82 83 82 81 81 81
72 74 74 74 74 74 74 74 74 74 74 74 74 75 74 73 73 74 74 75 75 76 77 78 77 78 78 80 80 78 77 76 76 77 76 78 80 81 81 83 82 81 81
72 73 74 74 74 74 72 73 73 73 74 74 74 74 74 73 74 74 74 75 74 76 77 77 76 77 77 78 79 78 76 76 78 78 77 79 79 81 81 82 82 82 81
73 73 74 74 74 74 73 72 72 72 73 73 74 74 75 74 73 73 73 74 75 76 77 76 76 77 77 77 78 78 78 78 77 77 78 78 80 80 81 82 81 82 82
75 75 74 74 74 73 73 72 71 73 74 73 74 74 74 74 74 74 73 74 74 76 76 75 76 77 76 76 74 75 77 77 77 78 78 78 79 80 82 82 81 81 80
76 74 75 78 75 73 73 72 72 73 74 75 75 77 75 75 75 74 73 74 76 74 75 74 74 74 74 74 73 73 74 77 77 78 78 78 78 81 80 81 81 80 82
76 75 74 76 75 74 73 72 73 74 74 76 77 76 75 75 75 75 75 75 75 74 74 74 73 73 72 72 75 74 73 74 76 80 78 78 77 79 79 79 80 79 82
77 76 76 76 75 74 74 73 72 74 74 75 75 75 75 76 76 75 75 75 75 74 73 73 73 72 71 70 74 73 72 74 74 76 79 79 77 78 79 78 78 80 80
78 76 76 75 75 74 72 71 71 73 73 74 74 76 75 76 77 75 75 74 74 74 74 74 72 72 71 70 70 71 72 72 73 73 75 77 78 78 78 78 78 77 77
77 76 75 75 75 75 76 75 74 75 73 75 76 76 76 76 76 76 74 74 74 73 73 72 72 70 69 70 68 67 67 71 73 74 72 76 75 77 78 77 76 76 76
77 76 76 75 76 76 76 75 72 72 73 73 74 74 75 76 77 76 75 74 74 74 73 72 71 70 69 69 69 69 65 65 68 71 70 73 73 74 75 75 75 75 75
78 78 77 76 76 76 76 75 74 75 73 75 74 75 76 76 76 76 75 74 74 74 72 72 71 70 69 70 69 69 68 69 67 67 70 71 71 74 73 74 75 75 74
81 79 78 76 76 76 76 76 76 75 76 73 73 74 74 75 76 77 75 74 74 74 72 71 70 69 69 69 69 68 67 67 67 67 66 69 70 71 72 72 73 75 74
82 79 78 75 75 76 75 76 75 75 73 72 71 73 73 74 74 75 75 75 74 73 72 71 70 70 69 69 69 69 69 69 68 67 65 65 68 70 71 71 71 72 74
MSLP
1014.30 1014.30 1014.43 1014.57 1014.85 1014.93 1015.32 1015.28 1015.56 1015.89 1016.09 1016.26 1016.48 1016.79 1017.19 1017.26 1017.35 1017.43 1017.41 1017.34 1017.35 1017.44 1017.37 1017.35 1017.36 1017.31 1017.36 1017.32 1017.31 1017.39 1017.40 1017.55 1017.66 1017.76 1017.75 1017.87 1017.98 1018.10 1018.28 1018.40 1018.57 1018.59 1018.63
1014.05 1014.50 1014.72 1014.83 1014.92 1015.11 1015.40 1015.63 1015.97 1016.20 1016.26 1016.55 1016.87 1017.19 1017.32 1017.46 1017.54 1017.49 1017.48 1017.54 1017.62 1017.56 1017.54 1017.56 1017.55 1017.58 1017.58 1017.45 1017.57 1017.66 1017.74 1017.76 1017.79 1017.89 1017.96 1018.02 1018.22 1018.43 1018.46 1018.69 1018.84 1018.87 1018.92
1014.53 1014.73 1015.01 1015.03 1015.18 1015.40 1015.70 1016.03 1016.31 1016.37 1016.63 1016.94 1017.17 1017.30 1017.45 1017.62 1017.71 1017.66 1017.69 1017.74 1017.75 1017.69 1017.70 1017.76 1017.78 1017.82 1017.82 1017.73 1017.77 1017.73 1018.02 1018.10 1018.08 1018.17 1018.28 1018.40 1018.40 1018.48 1018.63 1018.79 1018.90 1019.07 1019.21
1014.65 1015.05 1015.23 1015.28 1015.45 1015.64 1016.01 1016.32 1016.48 1016.66 1016.96 1017.15 1017.34 1017.47 1017.65 1017.83 1017.82 1017.75 1017.82 1017.90 1017.92 1017.98 1018.02 1018.01 1018.02 1018.04 1018.09 1017.96 1017.96 1017.95 1018.13 1018.24 1018.39 1018.48 1018.69 1018.63 1018.42 1018.60 1018.86 1018.95 1019.01 1019.22 1019.47
1014.99 1015.25 1015.44 1015.49 1015.71 1015.95 1016.24 1016.56 1016.74 1016.96 1017.15 1017.36 1017.58 1017.67 1017.84 1017.98 1017.94 1017.88 1018.00 1018.08 1018.16 1018.22 1018.18 1018.17 1018.14 1018.06 1018.08 1018.06 1018.10 1018.01 1018.04 1018.16 1018.35 1018.75 1018.91 1018.93 1018.83 1018.81 1018.97 1019.18 1019.38 1019.44 1019.62
1015.20 1015.50 1015.51 1015.69 1015.89 1016.18 1016.49 1016.77 1017.01 1017.15 1017.38 1017.64 1017.77 1017.82 1017.96 1018.06 1018.03 1018.06 1018.22 1018.26 1018.30 1018.28 1018.31 1018.27 1018.26 1018.19 1018.14 1018.14 1018.09 1017.96 1018.18 1018.18 1018.33 1018.92 1019.21 1019.09 1019.06 1019.02 1019.29 1019.35 1019.52 1019.72 1019.89
1015.45 1015.63 1015.74 1015.83 1016.05 1016.35 1016.68 1016.96 1017.19 1017.37 1017.58 1017.77 1017.88 1017.92 1018.07 1018.12 1018.14 1018.24 1018.35 1018.38 1018.40 1018.38 1018.43 1018.41 1018.35 1018.30 1018.29 1018.29 1018.26 1018.28 1018.30 1018.39 1018.76 1019.12 1019.30 1019.41 1019.31 1019.27 1019.40 1019.57 1019.73 1019.88 1020.09
1015.52 1015.69 1015.90 1016.04 1016.25 1016.55 1016.88 1017.14 1017.35 1017.52 1017.67 1017.96 1018.04 1018.05 1018.20 1018.29 1018.35 1018.41 1018.47 1018.46 1018.47 1018.43 1018.44 1018.48 1018.47 1018.47 1018.41 1018.36 1018.28 1018.30 1018.53 1018.79 1019.15 1019.42 1019.51 1019.61 1019.44 1019.39 1019.62 1019.71 1019.95 1020.06 1020.27
1015.60 1015.90 1016.09 1016.26 1016.41 1016.71 1016.99 1017.28 1017.44 1017.62 1017.82 1018.02 1018.09 1018.19 1018.32 1018.44 1018.51 1018.52 1018.56 1018.57 1018.57 1018.53 1018.46 1018.52 1018.51 1018.60 1018.53 1018.50 1018.57 1018.57 1018.72 1019.02 1019.36 1019.55 1019.56 1019.67 1019.57 1019.57 1019.77 1019.92 1020.14 1020.38 1020.50
1015.91 1016.03 1016.29 1016.50 1016.67 1016.92 1017.17 1017.33 1017.51 1017.70 1017.89 1018.13 1018.24 1018.40 1018.50 1018.51 1018.54 1018.56 1018.63 1018.65 1018.58 1018.60 1018.54 1018.57 1018.57 1018.68 1018.61 1018.55 1018.63 1018.80 1018.93 1019.16 1019.36 1019.54 1019.73 1019.84 1019.82 1019.74 1019.96 1020.05 1020.32 1020.56 1020.89
1016.22 1016.37 1016.44 1016.69 1016.92 1017.11 1017.39 1017.46 1017.60 1017.82 1018.02 1018.19 1018.28 1018.46 1018.52 1018.66 1018.79 1018.74 1018.60 1018.56 1018.51 1018.53 1018.64 1018.63 1018.63 1018.71 1018.59 1018.58 1018.79 1018.90 1019.02 1019.48 1019.59 1019.81 1019.95 1019.94 1019.90 1019.87 1020.07 1020.20 1020.38 1020.67 1020.93
1016.03 1016.36 1016.53 1016.70 1016.89 1017.17 1017.33 1017.56 1017.79 1018.02 1018.20 1018.36 1018.45 1018.63 1018.75 1018.87 1018.92 1018.78 1018.66 1018.53 1018.46 1018.46 1018.66 1018.63 1018.58 1018.68 1018.80 1018.74 1018.86 1018.90 1019.24 1019.47 1019.67 1019.78 1019.88 1019.94 1020.05 1019.96 1020.11 1020.27 1020.47 1020.65 1020.87
1015.59 1016.09 1016.38 1016.54 1016.78 1017.09 1017.27 1017.60 1017.93 1018.16 1018.34 1018.50 1018.57 1018.69 1018.82 1018.83 1018.90 1018.93 1018.89 1018.76 1018.68 1018.63 1018.80 1018.92 1018.94 1018.90 1018.87 1018.90 1018.82 1018.98 1019.22 1019.46 1019.62 1019.76 1019.82 1019.83 1019.93 1020.00 1020.01 1020.28 1020.44 1020.67 1020.92
1015.36 1015.68 1016.11 1016.32 1016.60 1016.94 1017.27 1017.57 1017.87 1018.16 1018.34 1018.55 1018.66 1018.76 1018.88 1019.03 1019.15 1019.13 1019.08 1018.92 1018.79 1018.72 1018.72 1018.86 1018.98 1019.12 1019.00 1018.85 1018.84 1018.95 1019.19 1019.41 1019.58 1019.69 1019.85 1019.81 1019.84 1020.00 1020.03 1020.06 1020.46 1020.85 1021.03
1015.06 1015.42 1015.82 1016.13 1016.47 1016.76 1017.20 1017.47 1017.73 1017.92 1018.13 1018.43 1018.70 1018.78 1018.88 1019.01 1019.06 1019.18 1019.12 1019.04 1018.97 1018.84 1018.78 1018.80 1018.89 1018.94 1019.08 1018.99 1019.02 1019.05 1019.16 1019.29 1019.34 1019.63 1019.82 1019.80 1019.80 1019.84 1019.86 1020.02 1020.27 1020.73 1021.02
1014.69 1015.08 1015.47 1015.87 1016.13 1016.53 1016.92 1017.29 1017.46 1017.71 1017.95 1018.32 1018.46 1018.57 1018.71 1018.92 1019.07 1019.12 1019.16 1019.09 1019.00 1018.87 1018.90 1018.84 1018.94 1018.96 1019.02 1019.19 1019.04 1019.11 1019.14 1019.18 1019.47 1019.59 1019.81 1019.80 1019.72 1019.78 1019.84 1019.94 1020.27 1020.41 1020.60
1014.22 1014.67 1015.12 1015.55 1015.85 1016.37 1016.78 1017.07 1017.38 1017.56 1017.80 1018.01 1018.10 1018.29 1018.50 1018.68 1018.93 1018.97 1019.05 1019.06 1018.95 1018.93 1018.91 1019.03 1019.01 1019.07 1019.06 1019.22 1019.48 1019.40 1019.16 1019.18 1019.29 1019.41 1019.61 1019.76 1019.78 1019.74 1019.80 1019.91 1020.17 1020.40 1020.56
1013.84 1014.28 1014.79 1015.21 1015.74 1016.18 1016.54 1016.74 1017.06 1017.37 1017.56 1017.64 1017.71 1017.86 1018.11 1018.40 1018.66 1018.80 1018.87 1018.93 1018.86 1018.98 1018.98 1019.14 1019.34 1019.45 1019.52 1019.56 1019.58 1019.61 1019.32 1019.18 1019.03 1019.18 1019.54 1019.82 1019.89 1019.90 1019.91 1019.88 1020.12 1020.36 1020.48
1013.08 1013.69 1014.30 1014.79 1015.23 1015.79 1016.14 1016.45 1016.70 1016.99 1017.26 1017.24 1017.34 1017.58 1017.80 1018.05 1018.38 1018.48 1018.67 1018.91 1018.85 1018.99 1019.11 1019.25 1019.55 1019.60 1019.77 1019.86 1019.77 1019.66 1019.61 1019.40 1019.10 1019.24 1019.47 1019.63 1019.87 1019.99 1020.10 1020.11 1020.15 1020.26 1020.52
1012.57 1013.12 1013.78 1014.35 1014.77 1015.35 1015.93 1016.32 1016.60 1016.89 1016.93 1017.03 1017.08 1017.26 1017.42 1017.61 1017.78 1018.11 1018.49 1018.71 1018.79 1019.00 1019.31 1019.43 1019.62 1019.77 1019.94 1020.11 1019.98 1020.03 1020.05 1019.74 1019.72 1019.67 1019.64 1019.74 1019.95 1020.02 1020.10 1020.30 1020.51 1020.59 1020.61
1012.10 1012.66 1013.16 1013.88 1014.30 1014.98 1015.61 1016.18 1016.49 1016.64 1016.72 1016.76 1016.65 1016.64 1016.93 1017.18 1017.44 1017.82 1018.28 1018.50 1018.59 1018.92 1019.19 1019.45 1019.78 1019.98 1020.12 1020.30 1020.32 1020.46 1020.42 1020.25 1020.20 1020.15 1020.11 1020.04 1019.90 1020.00 1020.31 1020.59 1020.76 1020.89 1020.89
1011.20 1011.72 1012.35 1012.83 1013.57 1014.09 1014.65 1015.13 1015.51 1015.80 1016.05 1016.13 1016.10 1016.27 1016.47 1016.81 1017.16 1017.49 1017.94 1018.27 1018.44 1018.82 1019.13 1019.48 1019.76 1020.11 1020.31 1020.45 1020.70 1020.95 1020.96 1020.85 1020.69 1020.77 1020.63 1020.42 1020.43 1020.43 1020.44 1020.68 1020.88 1021.07 1021.19
1010.32 1010.90 1011.45 1011.85 1012.53 1013.25 1013.85 1014.65 1015.26 1015.57 1015.82 1016.07 1016.19 1016.29 1016.35 1016.56 1016.70 1017.03 1017.49 1017.91 1018.19 1018.58 1018.94 1019.41 1019.65 1019.94 1020.23 1020.54 1020.53 1020.66 1021.25 1021.24 1021.29 1021.11 1021.07 1021.02 1021.01 1020.99 1020.98 1020.98 1021.09 1021.24 1021.35
1008.97 1009.88 1010.62 1011.46 1012.12 1012.67 1013.26 1013.87 1014.36 1014.68 1015.06 1015.31 1015.56 1015.84 1016.06 1016.11 1016.31 1016.69 1017.16 1017.61 1017.92 1018.23 1018.76 1019.05 1019.33 1019.69 1019.96 1020.36 1020.72 1020.81 1020.91 1021.04 1021.32 1021.71 1021.49 1021.44 1021.36 1021.31 1021.30 1021.29 1021.29 1021.32 1021.41
1008.24 1008.91 1009.57 1010.36 1011.11 1011.71 1012.29 1012.72 1013.44 1014.00 1014.23 1014.60 1015.06 1015.39 1015.69 1015.82 1015.97 1016.23 1016.72 1017.22 1017.72 1017.93 1018.37 1018.70 1019.06 1019.41 1019.79 1020.18 1020.52 1020.91 1021.15 1021.21 1021.20 1021.38 1021.61 1021.60 1021.54 1021.42 1021.31 1021.39 1021.39 1021.36 1021.47
1007.62 1008.47 1009.07 1009.75 1010.18 1010.87 1011.55 1012.03 1012.55 1013.10 1013.68 1014.29 1014.77 1015.10 1015.36 1015.58 1015.77 1015.89 1016.30 1016.68 1017.13 1017.48 1018.01 1018.35 1018.74 1019.20 1019.54 1019.96 1020.27 1020.50 1020.60 1020.85 1021.06 1021.16 1021.51 1021.64 1021.59 1021.46 1021.43 1021.38 1021.39 1021.39 1021.42
Wind_Speed
6 10 15 18 18 17 17 18 17 17 18 18 18 17 15 15 14 12 11 11 11 9 9 10 10 9 9 10 11 11 11 9 9 8 9 10 10 12 12 13 11 9 13
12 8 14 16 17 18 17 18 17 16 17 17 16 16 16 14 12 11 11 10 8 9 8 9 9 9 8 8 9 9 8 8 9 9 9 9 9 9 12 12 12 10 12
10 8 10 15 17 18 17 16 16 16 17 16 15 16 15 13 11 10 9 9 8 7 7 8 8 9 7 6 7 7 7 7 8 8 9 4 5 11 11 12 12 12 11
9 6 7 15 17 17 16 15 14 16 16 15 14 14 13 12 10 8 8 7 6 6 7 7 8 8 6 4 3 5 6 7 7 9 4 3 8 11 11 11 11 12 12
7 7 10 17 16 17 16 14 14 15 15 14 13 12 12 10 9 7 7 5 5 6 7 7 7 7 5 4 3 2 5 7 9 7 4 3 2 10 11 11 10 12 12
7 6 15 18 18 16 16 15 15 15 14 13 12 11 10 9 8 6 5 4 5 6 7 8 7 5 4 3 2 6 6 3 9 7 3 5 4 11 11 12 12 11 11
7 5 10 16 16 16 15 14 14 13 13 11 10 10 9 8 6 5 4 3 4 5 7 8 6 4 4 3 2 5 6 8 7 6 5 3 3 9 12 12 12 12 12
9 6 7 15 16 15 14 13 12 12 11 9 9 8 7 6 4 3 2 2 3 6 7 7 4 4 2 2 3 5 10 7 6 5 5 3 4 9 9 12 11 10 11
6 6 5 6 12 15 14 13 12 11 10 9 8 7 5 4 2 1 1 3 4 5 5 5 3 3 3 2 3 2 7 9 5 3 4 3 6 10 11 10 13 8 10
5 5 5 5 5 6 6 13 12 10 10 9 7 5 4 3 2 1 2 4 3 3 3 3 2 2 1 1 3 3 7 7 4 3 2 2 2 9 10 10 11 10 9
6 5 5 5 5 5 5 6 10 11 9 8 6 5 2 1 2 3 4 5 4 1 1 1 2 1 3 3 2 3 5 2 3 1 1 4 6 8 9 10 9 12 9
11 8 7 6 6 5 5 4 4 4 2 2 2 1 1 1 2 4 5 6 2 2 1 1 1 2 4 1 0 1 2 3 2 2 2 7 8 10 9 10 8 11 11
12 10 9 8 6 7 5 3 2 2 2 1 3 2 2 2 2 2 2 2 2 3 1 2 3 2 1 0 1 0 3 3 2 2 3 7 10 10 11 10 10 9 10
12 13 10 9 8 7 3 3 3 3 2 2 3 3 2 1 2 2 2 3 2 2 3 1 0 1 2 1 3 2 3 3 2 2 2 5 9 7 8 11 10 9 8
13 13 11 10 9 8 5 3 3 4 3 3 3 4 3 3 3 2 3 3 3 3 3 2 2 1 2 2 2 2 2 3 4 1 1 5 7 8 6 8 11 10 10
13 13 12 12 10 8 8 6 5 3 4 3 4 5 5 3 2 3 3 3 3 3 2 0 2 1 1 1 1 1 3 4 1 3 2 3 7 7 6 7 8 11 10
12 13 13 13 10 9 9 6 4 5 4 4 5 6 6 5 4 4 3 3 3 2 1 2 2 2 3 3 4 2 2 3 3 4 3 2 2 4 5 7 7 8 9
12 13 12 12 12 10 8 6 4 4 4 5 5 4 6 5 5 4 3 3 2 1 2 2 1 1 1 2 2 2 2 1 3 3 2 2 3 2 3 4 5 7 8
14 13 12 12 12 12 9 5 5 6 5 5 4 4 6 6 6 5 3 3 2 2 2 1 1 1 1 2 2 2 4 2 2 2 2 4 3 2 1 3 3 5 6
14 13 12 11 12 12 7 4 2 3 4 3 5 5 6 6 8 5 3 4 3 3 2 1 1 1 2 2 2 4 3 3 3 2 2 2 2 3 3 0 1 1 4
13 13 14 13 11 9 5 5 4 6 4 3 4 6 6 5 7 6 3 3 3 3 3 2 2 1 2 1 2 2 3 5 5 3 2 1 3 3 4 3 2 2 3
17 17 16 17 14 12 9 7 4 5 3 3 3 4 5 6 7 6 6 5 4 3 3 3 3 1 1 1 2 1 2 3 3 5 3 3 3 3 3 4 4 4 3
18 18 17 18 17 14 13 6 3 3 2 2 2 2 4 8 8 8 7 5 5 4 4 3 4 4 3 1 2 3 2 2 0 3 4 3 3 2 2 3 3 3 3
21 18 18 16 15 14 14 11 13 9 9 7 5 5 7 8 7 7 7 6 6 4 4 4 4 3 3 3 1 2 3 2 3 0 1 1 2 0 1 1 1 3 3
18 18 18 18 18 17 17 17 12 12 8 4 3 7 6 6 6 7 8 8 6 5 5 6 5 5 3 2 2 2 1 1 1 3 2 1 1 2 3 3 3 3 4
16 16 16 17 17 17 16 18 16 16 9 7 5 7 5 4 4 7 7 8 7 6 6 6 5 5 4 3 2 2 3 2 2 2 2 2 2 2 2 4 4 4 4
Wind_Direction
156 148 142 138 129 127 125 116 110 110 113 112 112 114 117 110 108 106 97 89 86 85 81 83 94 104 107 103 106 110 109 114 115 115 115 115 116 113 112 108 111 108 108
130 143 140 136 124 123 119 116 115 116 112 112 114 117 111 112 112 106 103 97 94 92 86 87 89 93 94 113 117 120 123 127 116 120 122 121 126 124 113 113 114 115 106
125 133 133 133 125 122 119 117 121 118 115 115 115 113 117 116 112 108 101 92 85 77 82 87 83 81 85 118 134 133 124 112 99 121 109 95 132 134 110 119 122 122 122
124 119 136 131 127 123 120 124 123 119 119 118 117 119 119 117 117 113 102 92 84 79 71 69 73 80 80 70 123 147 142 133 116 113 97 84 129 115 117 111 110 112 107
111 119 140 135 133 129 129 128 126 125 124 123 124 125 122 121 121 118 105 97 79 70 70 70 69 68 77 64 52 148 178 170 149 117 97 94 103 129 122 112 112 112 114
116 126 142 142 136 135 135 138 132 130 128 128 132 131 129 127 128 122 117 104 77 72 72 74 73 70 71 65 75 130 84 110 152 124 113 112 117 127 121 126 115 113 112
123 134 144 147 144 142 145 142 137 133 130 137 140 140 132 132 126 130 124 90 68 58 69 74 80 82 64 49 80 128 123 104 116 124 130 124 145 134 134 124 109 112 113
139 135 148 153 152 152 152 149 145 141 140 144 149 146 141 131 124 123 106 53 42 56 66 76 72 67 70 81 74 108 135 103 107 120 127 138 141 146 137 126 123 119 116
142 138 146 158 160 162 163 160 159 153 153 163 161 157 156 143 132 110 47 17 22 56 59 73 67 53 44 86 74 110 118 121 113 127 138 153 185 150 142 144 134 133 128
145 150 145 154 158 162 168 173 170 170 170 174 168 168 180 172 181 288 343 333 341 37 62 67 73 46 344 197 118 128 112 105 130 126 131 155 205 146 147 150 142 143 132
160 160 155 161 161 164 171 190 184 185 184 187 189 194 206 39 335 324 296 290 276 301 175 175 147 177 240 287 153 146 149 110 133 136 158 199 191 172 162 160 162 151 151
177 173 172 168 174 165 182 200 177 195 178 186 201 228 301 306 285 280 290 303 296 285 218 215 21 94 81 308 205 267 101 139 140 178 181 202 201 185 173 165 167 166 171
179 180 178 178 180 173 190 175 174 181 180 192 218 221 250 264 270 317 312 334 336 323 357 348 9 16 144 245 13 133 134 156 163 190 196 201 207 201 177 185 179 183 181
180 185 179 180 184 184 169 176 177 179 187 198 218 228 229 258 295 300 289 302 305 293 286 286 246 119 81 4 60 74 144 167 191 168 188 224 211 220 200 187 185 192 201
185 185 183 183 187 188 179 173 182 195 189 197 204 230 208 224 246 276 267 272 276 277 270 311 318 16 75 18 74 126 179 226 216 156 155 216 203 224 211 211 192 191 199
188 187 182 190 189 183 194 187 196 190 189 191 212 218 217 208 227 239 246 273 262 259 270 76 87 10 359 81 26 50 214 220 146 200 188 238 245 220 226 208 203 206 207
194 185 188 189 186 188 199 196 185 198 202 208 216 211 209 209 200 228 217 250 251 252 147 120 59 22 14 51 103 29 344 301 225 203 203 224 267 298 225 221 200 206 203
186 187 188 191 188 193 198 194 190 188 202 219 216 197 196 210 204 214 221 245 258 181 160 95 57 48 15 16 3 31 19 290 250 191 194 224 250 270 295 211 194 194 210
187 185 187 188 187 193 198 192 196 196 208 217 195 205 196 199 199 202 198 228 179 135 122 111 76 106 38 14 6 24 24 21 199 132 212 236 255 247 268 307 213 200 208
188 187 186 188 186 187 188 184 187 200 227 230 219 203 197 196 193 189 186 194 184 155 152 129 144 63 67 23 28 41 35 360 53 44 183 200 192 192 204 64 59 3 239
184 183 186 184 189 175 173 179 199 214 205 220 213 200 191 187 187 181 179 193 188 175 179 171 115 89 55 38 49 27 27 29 42 38 25 87 61 123 122 104 49 34 18
189 191 188 192 187 189 189 198 193 183 194 189 206 208 186 188 185 183 178 195 182 168 174 170 141 119 23 86 118 98 50 355 32 19 21 36 60 47 84 79 88 80 59
196 195 195 195 191 191 193 172 101 93 78 149 201 207 206 202 194 191 181 176 183 177 182 177 157 158 176 121 128 137 131 180 72 0 15 21 48 61 41 83 100 100 94
201 194 196 194 193 193 187 189 198 202 201 208 191 193 202 202 197 184 178 180 186 182 179 192 169 166 148 171 120 58 68 140 146 138 350 353 12 83 322 312 168 168 162
201 199 195 191 193 192 190 195 195 206 208 186 171 182 193 196 191 194 181 181 190 189 186 181 169 177 162 144 151 147 107 74 88 135 194 257 320 254 244 238 238 229 199
204 201 197 194 197 192 192 198 197 204 191 179 178 192 185 190 190 199 184 184 189 188 184 190 183 173 175 151 161 163 169 171 180 150 138 190 210 280 269 243 237 231 224